"TOA5","AWS1","CR1000","7964","CR1000.Std.14","CPU:AWS1_114.CR1","64363","TBL110"
"TIMESTAMP","RECORD","Wind_spd_WVc(1)","Wind_spd_WVc(2)","Air_Temp_Avg","Humidity_Avg","SW_upper_Wm2_Avg","Rain_Tot","Press_Avg","Issui_Tot","Depth_cm","SR50A_Raw","Quality","Ground_Temp_Avg(1)","Ground_Temp_Avg(2)","SW_lower_Wm2_Avg","Albedo_Avg","SWC_per(1)","SWC_per(2)","Period(1)","Period(2)"
"TS","RN","","","","","","","","","","","","","","","","","","",""
"","","WVc","WVc","Avg","Avg","Avg","Tot","Avg","Tot","Smp","Smp","Smp","Avg","Avg","Avg","Avg","Smp","Smp","Smp","Smp"
"2016-07-28 00:00:00",246157,0.162,110.8,18.31,100,0,0,866.39,0,0.082,3.078,200,21.56,20.66,0.4547449,0,49.3,57.27,33.12,35.05
"2016-07-28 00:10:00",246158,0.374,310.7,18.26,100,0,0,866.3918,0,0.288,3.076,203,21.54,20.66,0.5191671,0,49.3,57.27,33.12,35.05
"2016-07-28 00:20:00",246159,0.325,96.1,18.36,100,0,0,866.4947,0,0.447,3.074,206,21.58,20.64,0.6101161,0,49.3,57.27,33.12,35.05
"2016-07-28 00:30:00",246160,0.097,145.4,18.35,100,0,0,866.6331,0,0.606,3.072,203,21.58,20.62,0.5343253,0,49.3,57.22,33.12,35.03
"2016-07-28 00:40:00",246161,0.061,124.6,18.38,100,0,0,866.6041,0,1.011,3.069,210,21.47,20.6,0.5684311,0,49.24,57.22,33.11,35.03
"2016-07-28 00:50:00",246162,0.037,128,18.17,100,0,0,866.4883,0,0.748,3.072,208,21.45,20.6,0.2766365,0,49.3,57.22,33.12,35.03
"2016-07-28 01:00:00",246163,0,0,18.24,100,0,0,866.3956,0,0.701,3.072,204,21.46,20.59,0.4774822,0,49.3,57.22,33.12,35.03
"2016-07-28 01:10:00",246164,0.102,307.1,18.27,100,0,0,866.3535,0,0.908,3.07,216,21.49,20.59,0.5684311,0,49.3,57.22,33.12,35.03
"2016-07-28 01:20:00",246165,0.072,301,18.2,100,0,0,866.2755,0,0.876,3.071,233,21.45,20.59,0.41306,0,49.24,57.16,33.11,35.02
"2016-07-28 01:30:00",246166,0.095,292,18.03,100,0,0,866.3703,0,0.853,3.071,226,21.37,20.59,0.2273725,0,49.24,57.22,33.11,35.03
"2016-07-28 01:40:00",246167,0.057,157.7,18.07,100,0,0,866.3766,0,1.313,3.067,240,21.37,20.59,0.2842156,0,49.3,57.22,33.12,35.03
"2016-07-28 01:50:00",246168,0,0,17.91,100,0,0,866.3766,0,1.477,3.067,240,21.38,20.58,0.2160038,0,49.3,57.22,33.12,35.03
"2016-07-28 02:00:00",246169,0.098,167.5,17.73,100,0,0,866.3914,0,1.342,3.069,234,21.37,20.59,0.1136862,0,49.35,57.22,33.14,35.03
"2016-07-28 02:10:00",246170,0.182,144,17.66,100,0,0,866.3822,0,1.652,3.066,236,21.34,20.59,0.2122143,0,49.3,57.22,33.12,35.03
"2016-07-28 02:20:00",246171,0.245,133,17.69,100,0,0,866.4218,0,1.478,3.067,243,21.28,20.59,0.3183214,0,49.3,57.22,33.12,35.03
"2016-07-28 02:30:00",246172,0.004,76.3,17.83,100,0.1414902,0,866.6454,0,1.51,3.066,244,21.28,20.58,0.4433763,1.157,49.24,57.16,33.11,35.02
"2016-07-28 02:40:00",246173,0,0,17.91,100,0,0,866.6482,0,2.748,3.054,249,21.3,20.58,0.2766365,0,49.24,57.16,33.11,35.02
"2016-07-28 02:50:00",246174,0,0,18,100,0,0,866.6483,0,2.575,3.055,234,21.31,20.58,0.280426,0,49.24,57.16,33.11,35.02
"2016-07-28 03:00:00",246175,0.031,22.68,18.03,100,0,0,866.6484,0,2.082,3.06,212,21.26,20.58,0.2538992,0,49.3,57.16,33.12,35.02
"2016-07-28 03:10:00",246176,0.008,29.16,18.04,100,0,0,866.6484,0,1.312,3.067,213,21.2,20.58,0.2614783,0,49.24,57.16,33.11,35.02
"2016-07-28 03:20:00",246177,0.087,31.64,17.94,100,0,0,866.6484,0,0.445,3.077,210,21.19,20.58,0.2273725,0,49.3,57.16,33.12,35.02
"2016-07-28 03:30:00",246178,0.101,24.75,17.87,100,0,0,866.7368,0,-0.268,3.083,209,21.22,20.59,0.231162,0,49.24,57.16,33.11,35.02
"2016-07-28 03:40:00",246179,0,0,17.84,100,0,0,866.7558,0,0.342,3.078,226,21.27,20.59,0.2235829,0,49.3,57.16,33.12,35.02
"2016-07-28 03:50:00",246180,0.01,92.1,17.81,100,0,0,866.6525,0,-0.094,3.082,222,21.24,20.59,0.2235829,0,49.3,57.16,33.12,35.02
"2016-07-28 04:00:00",246181,0.068,45.4,17.84,100,0,0,866.6484,0,1.557,3.066,251,21.15,20.59,0.2425306,0,49.3,57.16,33.12,35.02
"2016-07-28 04:10:00",246182,0.052,23.57,17.82,100,0,0,866.6455,0,2.097,3.061,270,21.1,20.6,0.2273725,0,49.24,57.16,33.11,35.02
"2016-07-28 04:20:00",246183,0.039,29.04,17.79,100,0,0,866.645,0,1.707,3.065,273,21.11,20.61,0.2160038,0,49.24,57.16,33.11,35.02
"2016-07-28 04:30:00",246184,0.187,33.27,17.72,100,0,0,866.6442,0,1.318,3.069,253,21.14,20.62,0.2273725,0,49.24,57.1,33.11,35.01
"2016-07-28 04:40:00",246185,0.093,71.22,17.73,100,0,0,866.6599,0,1.501,3.067,260,21.13,20.63,0.2273725,0,49.3,57.16,33.12,35.02
"2016-07-28 04:50:00",246186,0.033,120,17.73,100,0,0,866.835,0,1.342,3.069,243,21.06,20.64,0.2349515,0,49.3,57.1,33.12,35.01
"2016-07-28 05:00:00",246187,0.02,129.9,17.69,100,0.7428235,0,866.8378,0,1.501,3.067,232,21.03,20.64,0.3562168,0.63,49.3,57.1,33.12,35.01
"2016-07-28 05:10:00",246188,0.141,128.8,17.76,100,5.435582,0,866.7707,0,2.374,3.059,231,21.02,20.66,1.246759,0.247,49.3,57.1,33.12,35.01
"2016-07-28 05:20:00",246189,0.078,131.4,17.71,100,14.51061,0,866.7233,0,2.739,3.055,224,21.02,20.66,2.6451,0.182,49.3,57.1,33.12,35.01
"2016-07-28 05:30:00",246190,0.022,137.8,17.76,100,18.29154,0,866.8832,0,3.002,3.052,225,21.02,20.66,3.251426,0.178,49.24,57.1,33.11,35.01
"2016-07-28 05:40:00",246191,0.02,277.1,17.81,100,22.59127,0,866.8964,0,2.922,3.053,220,21.04,20.67,3.857753,0.171,49.24,57.1,33.11,35.01
"2016-07-28 05:50:00",246192,0.397,138.3,17.7,100,31.72132,0,866.8947,0,2.683,3.056,211,21.04,20.66,4.975667,0.157,49.24,57.1,33.11,35.01
"2016-07-28 06:00:00",246193,0.109,123.3,17.75,100,28.80505,0,866.9084,0,2.772,3.054,230,21.01,20.67,4.486816,0.157,49.3,57.1,33.12,35.01
"2016-07-28 06:10:00",246194,0.057,35.3,17.82,100,18.8968,0,867.0814,0,2.645,3.055,241,20.99,20.67,3.202162,0.17,49.3,57.1,33.12,35.01
"2016-07-28 06:20:00",246195,0,0,17.87,100,23.27121,0,867.1149,0,3.232,3.05,280,20.93,20.67,3.668276,0.16,49.3,57.1,33.12,35.01
"2016-07-28 06:30:00",246196,0.255,107.3,17.8,100,47.3324,0,867.0636,0,3.105,3.051,270,20.93,20.67,6.980334,0.148,49.24,57.04,33.11,34.99
"2016-07-28 06:40:00",246197,0.049,122.2,17.85,100,54.0807,0,867.0587,0,3.378,3.047,281,20.93,20.67,7.753401,0.143,49.3,57.1,33.12,35.01
"2016-07-28 06:50:00",246198,0.286,118.1,17.91,100,34.48037,0,867.1222,0,3.438,3.048,266,20.93,20.67,5.127249,0.149,49.24,57.04,33.11,34.99
"2016-07-28 07:00:00",246199,0.158,124.6,17.87,100,40.45441,0,867.15,0,5.029,3.031,438,20.96,20.66,5.904105,0.146,49.24,57.04,33.11,34.99
"2016-07-28 07:10:00",246200,0.164,150,17.96,100,37.20406,0,867.166,0,3.851,3.044,317,21,20.65,5.44557,0.149,49.24,57.04,33.11,34.99
"2016-07-28 07:20:00",246201,0.045,106.5,17.89,100,64.23655,0,867.1912,0,2.439,3.057,220,21.01,20.65,9.117635,0.142,49.3,57.04,33.12,34.99
"2016-07-28 07:30:00",246202,0.027,90.1,18.13,100,103.7359,0,867.278,0,2.457,3.055,225,21.01,20.63,14.79058,0.143,49.3,57.04,33.12,34.99
"2016-07-28 07:40:00",246203,0.129,36.76,18.24,100,73.33122,0,867.3873,0,2.321,3.057,232,21,20.62,10.14839,0.138,49.3,57.04,33.12,34.99
"2016-07-28 07:50:00",246204,0.047,340.5,18.06,100,73.7557,0,867.3937,0,-0.8,3.087,200,20.98,20.59,10.01576,0.136,49.3,57.04,33.12,34.99
"2016-07-28 08:00:00",246205,0.067,61.43,18.19,100,122.1925,0,867.3945,0,0.011,3.078,223,20.96,20.59,17.71231,0.144,49.3,57.04,33.12,34.99
"2016-07-28 08:10:00",246206,0.009,230.2,18.42,100,124.1655,0,867.385,0,2.203,3.057,260,20.96,20.61,16.95062,0.132,49.24,57.04,33.11,34.99
"2016-07-28 08:20:00",246207,0.172,126.1,18.33,100,143.8995,0,867.3691,0,1.902,3.059,241,20.94,20.58,20.00499,0.138,49.24,57.04,33.11,34.99
"2016-07-28 08:30:00",246208,0.08,47.38,18.47,100,140.6806,0,867.3959,0,2.522,3.053,241,20.94,20.58,19.0576,0.135,49.24,57.04,33.11,34.99
"2016-07-28 08:40:00",246209,0.068,73.39,18.48,100,123.3755,0,867.4256,0,2.109,3.057,233,20.93,20.57,16.73082,0.134,49.24,57.1,33.11,35.01
"2016-07-28 08:50:00",246210,0.129,66.61,18.67,100,196.1644,0,867.5878,0,2.344,3.052,243,20.93,20.56,28.62619,0.146,49.24,56.98,33.11,34.98
"2016-07-28 09:00:00",246211,0.25,30.95,19.08,99,282.2179,0,867.5695,0,2.594,3.048,228,20.92,20.56,42.48075,0.151,49.24,57.04,33.11,34.99
"2016-07-28 09:10:00",246212,0.328,35.37,18.98,99.7,165.8383,0.5,867.6045,0,2.898,3.048,218,20.92,20.55,23.23368,0.138,49.24,56.98,33.11,34.98
"2016-07-28 09:20:00",246213,0.199,345.6,18.62,100,75.49233,0,867.6033,0,2.71,3.051,226,20.92,20.5,9.204727,0.121,49.24,56.98,33.11,34.98
"2016-07-28 09:30:00",246214,0.275,353.1,18.43,100,84.68761,0,867.7715,0,2.469,3.054,235,20.94,20.49,11.47823,0.135,49.24,57.04,33.11,34.99
"2016-07-28 09:40:00",246215,0.287,350.3,18.64,100,232.0883,0,867.8281,0,2.505,3.05,255,20.95,20.49,36.87937,0.158,49.24,56.98,33.11,34.98
"2016-07-28 09:50:00",246216,0.252,343.3,19.11,96.5,214.6277,0,867.8375,0,2.814,3.047,265,20.93,20.49,33.07115,0.153,49.24,56.98,33.11,34.98
"2016-07-28 10:00:00",246217,0.155,22.39,19.26,97,242.7119,0,867.8409,0,2.789,3.045,220,20.93,20.49,37.4175,0.154,49.24,56.98,33.11,34.98
"2016-07-28 10:10:00",246218,0.052,322.9,19.6,93.1,254.5224,0,867.8408,0,2.878,3.043,252,20.9,20.49,38.69079,0.152,49.24,56.98,33.11,34.98
"2016-07-28 10:20:00",246219,0.184,305.9,19.63,91.2,308.6124,0,867.8427,0,2.891,3.044,211,20.88,20.48,48.4074,0.155,49.24,56.98,33.11,34.98
"2016-07-28 10:30:00",246220,0.584,41.1,20.42,84.8,784.6005,0,867.6824,0,1.619,3.05,251,20.87,20.49,122.2447,0.154,49.24,56.98,33.11,34.98
"2016-07-28 10:40:00",246221,0.341,20.98,20.52,83.8,291.2848,0,867.5827,0,3.102,3.038,242,20.94,20.49,40.63301,0.139,49.24,56.98,33.11,34.98
"2016-07-28 10:50:00",246222,0.196,342.4,20.25,87.1,302.566,0,867.5665,0,2.66,3.043,205,20.94,20.43,43.22296,0.143,49.19,56.98,33.09,34.98
"2016-07-28 11:00:00",246223,0.053,29.23,20.27,88.8,212.1265,0,867.5641,0,2.616,3.043,211,20.94,20.43,28.51276,0.134,49.19,56.93,33.09,34.97
"2016-07-28 11:10:00",246224,0.089,204.2,20.21,88.2,160.2935,0,867.5424,0,1.71,3.052,234,20.94,20.45,21.26767,0.132,49.19,56.98,33.09,34.98
"2016-07-28 11:20:00",246225,0.146,212.7,20.43,86.5,373.4587,0,867.3365,0,2.544,3.041,203,20.91,20.45,55.38346,0.148,49.19,56.98,33.09,34.98
"2016-07-28 11:30:00",246226,0.5,136.7,20.93,84.4,438.8262,0,867.3167,0,2.614,3.041,203,21.04,20.43,61.5147,0.14,49.19,56.93,33.09,34.97
"2016-07-28 11:40:00",246227,0.514,116.1,21.05,85.2,629.2472,0,867.2437,0,2.167,3.039,227,21.01,20.42,96.45785,0.15,49.19,56.98,33.09,34.98
"2016-07-28 11:50:00",246228,0.409,64.76,21.49,81,300.9725,0,867.0685,0,3.072,3.033,215,21.03,20.42,41.35734,0.137,49.19,56.98,33.09,34.98
"2016-07-28 12:00:00",246229,0.638,139.6,21.02,80.6,320.3121,0,867.0649,0,2.858,3.038,208,21.1,20.41,45.89186,0.143,49.19,56.93,33.09,34.97
"2016-07-28 12:10:00",246230,0.396,115.2,21.6,78.6,720.413,0,867.0303,0,1.261,3.048,228,21.08,20.41,111.8111,0.153,49.19,56.98,33.09,34.98
"2016-07-28 12:20:00",246231,0.47,107.5,21.72,76.44,393.1273,0,866.8163,0,2.431,3.039,221,21.11,20.41,55.66657,0.141,49.13,56.93,33.08,34.97
"2016-07-28 12:30:00",246232,0.428,104.1,21.37,77.45,283.1608,0,866.8096,0,2.94,3.035,219,21.17,20.4,38.40759,0.136,49.13,56.93,33.08,34.97
"2016-07-28 12:40:00",246233,0.67,132.2,21.12,78.73,338.8163,0,866.8096,0,2.731,3.037,227,21.11,20.4,48.2777,0.142,49.19,56.93,33.09,34.97
"2016-07-28 12:50:00",246234,0.564,121.9,21.21,78.64,241.4857,0,866.8096,0,3.042,3.034,229,21.2,20.39,33.01252,0.132,49.13,56.93,33.08,34.97
"2016-07-28 13:00:00",246235,0.079,349,21.3,81.7,137.2691,0,866.8495,0,2.686,3.039,213,21.28,20.4,16.58777,0.121,49.13,56.93,33.08,34.97
"2016-07-28 13:10:00",246236,0.05,298,20.82,86.8,170.3055,0,866.957,0,2.998,3.036,218,21.3,20.39,22.66138,0.133,49.13,56.93,33.08,34.97
"2016-07-28 13:20:00",246237,0.086,302.1,20.8,88.4,273.4299,0,866.832,0,3.222,3.034,210,21.39,20.42,40.6029,0.148,49.08,56.93,33.07,34.97
"2016-07-28 13:30:00",246238,0.058,292.7,21.09,86.2,261.5936,0,866.8329,0,3.494,3.03,209,21.35,20.46,36.82636,0.139,49.13,56.93,33.08,34.97
"2016-07-28 13:40:00",246239,0.084,29.53,21.55,82.9,528.041,0,866.8127,0,1.458,3.044,222,21.47,20.44,80.46943,0.149,49.08,56.87,33.07,34.95
"2016-07-28 13:50:00",246240,0.28,2.792,21.86,77.5,433.8073,0,866.8055,0,2.548,3.036,205,21.47,20.42,61.46268,0.139,49.13,56.87,33.08,34.95
"2016-07-28 14:00:00",246241,0.314,318.5,22.06,78.37,652.6007,0,866.7337,0,2.049,3.039,224,21.51,20.39,101.0701,0.149,49.13,56.87,33.08,34.95
"2016-07-28 14:10:00",246242,0.308,37.21,22.58,74.76,555.1857,0,866.5674,0,1.656,3.041,222,21.5,20.38,80.43438,0.141,49.08,56.87,33.07,34.95
"2016-07-28 14:20:00",246243,0.172,313.8,22.11,77.24,321.6513,0,866.5568,0,2.318,3.036,224,21.47,20.38,41.79314,0.129,49.08,56.87,33.07,34.95
"2016-07-28 14:30:00",246244,0.116,275.7,21.67,79.06,236.2623,0,866.5737,0,2.232,3.04,203,21.47,20.4,29.04215,0.122,49.08,56.87,33.07,34.95
"2016-07-28 14:40:00",246245,0.08,111.7,21.41,80.9,164.4382,0,866.7906,0,2.661,3.037,210,21.59,20.4,18.88002,0.114,49.03,56.87,33.05,34.95
"2016-07-28 14:50:00",246246,0.066,178.5,21.4,78.9,235.3167,0,866.8096,0,2.175,3.041,204,21.59,20.4,30.1482,0.127,49.08,56.81,33.07,34.94
"2016-07-28 15:00:00",246247,0.031,64.22,21.34,78.57,178.7017,0,866.8096,0,2.103,3.043,215,21.64,20.41,21.85845,0.122,49.08,56.81,33.07,34.94
"2016-07-28 15:10:00",246248,0.017,41,21.26,79.7,138.9323,0,866.818,0,2.137,3.042,202,21.71,20.41,15.97453,0.115,49.03,56.81,33.05,34.94
"2016-07-28 15:20:00",246249,0,0,21.5,80.2,258.7982,0,866.9275,0,0.655,3.054,202,21.7,20.42,33.40792,0.13,49.03,56.81,33.05,34.94
"2016-07-28 15:30:00",246250,0.406,113.8,21.71,80.1,271.1217,0,866.8685,0,2.34,3.04,210,21.8,20.42,37.53091,0.138,49.03,56.81,33.05,34.94
"2016-07-28 15:40:00",246251,0.759,137.1,21.07,82.2,218.8862,0,866.8141,0,2.284,3.043,212,21.82,20.43,31.16574,0.143,49.03,56.81,33.05,34.94
"2016-07-28 15:50:00",246252,0.62,134.5,20.83,83.2,156.2266,0,866.8116,0,2.407,3.042,217,21.86,20.44,23.17098,0.148,49.03,56.81,33.05,34.94
"2016-07-28 16:00:00",246253,0.47,149.7,20.82,83.1,180.9928,0,866.8079,0,2.8,3.038,215,21.88,20.48,27.52154,0.152,49.03,56.75,33.05,34.93
"2016-07-28 16:10:00",246254,0.307,139.5,21.02,81.9,234.0387,0,866.7759,0,1.699,3.047,218,21.9,20.46,35.17567,0.149,49.03,56.75,33.05,34.93
"2016-07-28 16:20:00",246255,0.165,159.6,21.35,78.91,186.3605,0,866.66,0,2.079,3.044,205,21.85,20.48,25.34693,0.134,49.03,56.75,33.05,34.93
"2016-07-28 16:30:00",246256,0.271,146.7,20.95,79.98,84.60977,0,866.6599,0,2.372,3.043,203,21.83,20.5,9.370947,0.108,48.97,56.75,33.04,34.93
"2016-07-28 16:40:00",246257,0.255,170.1,20.76,81.6,76.71146,0,866.7972,0,2.344,3.043,203,21.89,20.53,10.91335,0.142,48.97,56.75,33.04,34.93
"2016-07-28 16:50:00",246258,0.276,158.2,20.85,80.6,120.7081,0,866.7553,0,2.249,3.043,218,22.01,20.57,19.23528,0.16,48.97,56.75,33.04,34.93
"2016-07-28 17:00:00",246259,0.125,147.2,21.18,81.3,177.8221,0,866.8033,0,2.025,3.042,220,22.01,20.58,26.95826,0.151,48.97,56.75,33.04,34.93
"2016-07-28 17:10:00",246260,0.06,281.1,21.56,79.94,109.7194,0,866.8096,0,2.29,3.039,214,21.98,20.56,14.86606,0.135,48.97,56.75,33.04,34.93
"2016-07-28 17:20:00",246261,0,0,21.55,81.3,122.5678,0,866.8096,0,1.979,3.042,213,21.99,20.55,16.70403,0.136,48.92,56.7,33.03,34.91
"2016-07-28 17:30:00",246262,0.008,6.013,21.55,82.1,128.5336,0,866.8139,0,2.128,3.041,209,22.02,20.53,17.90525,0.139,48.92,56.7,33.03,34.91
"2016-07-28 17:40:00",246263,0.179,153.8,21.29,84.4,91.00474,0,866.9028,0,2.373,3.04,205,22.05,20.52,11.0085,0.118,48.97,56.7,33.04,34.91
"2016-07-28 17:50:00",246264,0.001,39.46,21.23,86,60.85946,0,867.072,0,2.754,3.037,210,22.06,20.53,7.063591,0.116,48.92,56.7,33.03,34.91
"2016-07-28 18:00:00",246265,0.143,154.6,20.99,89.9,85.34497,0,867.2167,0,2.64,3.039,212,22.07,20.52,11.73605,0.137,48.92,56.7,33.03,34.91
"2016-07-28 18:10:00",246266,0.054,135.4,21.05,89.4,78.95363,0,867.2855,0,2.721,3.038,224,22.1,20.51,12.07319,0.152,48.92,56.7,33.03,34.91
"2016-07-28 18:20:00",246267,0.057,97.4,21.05,91.3,63.97591,0,867.2638,0,2.422,3.042,212,22.14,20.56,9.852615,0.154,48.92,56.7,33.03,34.91
"2016-07-28 18:30:00",246268,0.025,212.9,20.93,94.1,59.27142,0,867.3357,0,2.824,3.037,234,22.14,20.58,9.731347,0.164,48.92,56.7,33.03,34.91
"2016-07-28 18:40:00",246269,0.096,141.2,20.8,94.3,44.28189,0,867.3481,0,2.482,3.043,245,22.14,20.61,6.627815,0.149,48.92,56.7,33.03,34.91
"2016-07-28 18:50:00",246270,0.435,138.2,20.32,100,17.50105,0,867.3477,0,1.634,3.053,240,22.1,20.63,1.947768,0.106,48.92,56.7,33.03,34.91
"2016-07-28 19:00:00",246271,0.133,143.9,20.13,100,3.552897,0,867.3548,0,1.712,3.052,226,22.07,20.66,0.193262,0.021,48.92,56.7,33.03,34.91
"2016-07-28 19:10:00",246272,0.119,55.26,20.04,100,0,0,867.5225,0,2.416,3.047,266,22.07,20.67,0,0,48.92,56.7,33.03,34.91
"2016-07-28 19:20:00",246273,0.027,325.2,19.98,100,0,0,867.5897,0,3.739,3.034,341,22.07,20.67,0,0,48.92,56.7,33.03,34.91
"2016-07-28 19:30:00",246274,0.063,193.4,19.88,100,0,0,867.5938,0,-1.935,3.089,222,22.05,20.67,0,0,48.92,56.7,33.03,34.91
"2016-07-28 19:40:00",246275,0.055,7.985,19.85,100,0,0,867.8284,0,2.877,3.043,424,22.03,20.67,0.03410587,0,48.92,56.7,33.03,34.91
"2016-07-28 19:50:00",246276,0.033,344.7,19.79,100,0,0,867.8578,0,2.105,3.05,414,22.03,20.67,0.2273725,0,48.92,56.7,33.03,34.91
"2016-07-28 20:00:00",246277,0.018,357.9,19.79,100,0,0,867.8747,0,1.507,3.056,232,22.04,20.67,0.2273725,0,48.92,56.64,33.03,34.9
"2016-07-28 20:10:00",246278,0.008,36.08,19.73,100,0,0,868.0384,0,1.601,3.056,205,22.06,20.68,0.2273725,0,48.92,56.64,33.03,34.9
"2016-07-28 20:20:00",246279,0.073,36.04,19.6,100,0,0,868.1545,0,2.546,3.048,224,22.05,20.71,0.2273725,0,48.92,56.7,33.03,34.91
"2016-07-28 20:30:00",246280,0.065,22.64,19.41,100,0,0,868.3802,0,2.306,3.051,210,21.99,20.77,0.2197934,0,48.92,56.64,33.03,34.9
"2016-07-28 20:40:00",246281,0.033,352.4,19.32,100,0,0,868.3962,0,2.41,3.05,211,21.95,20.79,0.2273725,0,48.92,56.64,33.03,34.9
"2016-07-28 20:50:00",246282,0.089,80.1,19.25,100,0,0,868.4018,0,2.434,3.05,207,21.98,20.8,0.1667398,0,48.86,56.64,33.01,34.9
"2016-07-28 21:00:00",246283,0,0,19.26,100,0,0,868.3948,0,2.376,3.051,206,21.98,20.78,0.2197934,0,48.92,56.64,33.03,34.9
"2016-07-28 21:10:00",246284,0,0,19.27,100,0,0,868.603,0,2.41,3.05,210,21.98,20.77,0.2273725,0,48.92,56.64,33.03,34.9
"2016-07-28 21:20:00",246285,0.086,124.9,19.27,100,0,0,868.65,0,2.504,3.05,221,21.99,20.76,0.09852806,0,48.92,56.64,33.03,34.9
"2016-07-28 21:30:00",246286,0.11,98.8,19.15,100,0,0,868.4478,0,2.607,3.049,226,21.94,20.76,0.09852806,0,48.86,56.64,33.01,34.9
"2016-07-28 21:40:00",246287,0.237,109.9,19.13,100,0,0,868.386,0,2.067,3.054,208,21.93,20.76,0.140213,0,48.92,56.64,33.03,34.9
"2016-07-28 21:50:00",246288,0.303,126.3,19.06,100,0,0,868.3865,0,2.114,3.054,207,21.89,20.76,0.03031633,0,48.86,56.58,33.01,34.88
"2016-07-28 22:00:00",246289,0.138,102.3,19.02,100,0,0,868.3935,0,2.391,3.052,230,21.89,20.76,0.1477921,0,48.92,56.58,33.03,34.88
"2016-07-28 22:10:00",246290,0.075,61.2,19.04,100,0,0,868.3969,0,2.24,3.053,219,21.91,20.76,0.2273725,0,48.86,56.58,33.01,34.88
"2016-07-28 22:20:00",246291,0.31,121,19.03,100,0,0,868.3925,0,2.161,3.054,213,21.91,20.76,0.1970561,0,48.92,56.58,33.03,34.88
"2016-07-28 22:30:00",246292,0.264,139.9,18.97,100,0,0,868.3904,0,2.184,3.054,208,21.8,20.77,0.1553712,0,48.86,56.58,33.01,34.88
"2016-07-28 22:40:00",246293,0.358,104.7,18.92,100,0,0,868.3948,0,2.724,3.049,230,21.8,20.79,0.1667398,0,48.92,56.58,33.03,34.88
"2016-07-28 22:50:00",246294,0.144,97.7,18.95,100,0,0,868.406,0,2.391,3.052,220,21.8,20.8,0.2008457,0,48.92,56.58,33.03,34.88
"2016-07-28 23:00:00",246295,0.308,91.1,18.88,100,0,0,868.42,0,2.311,3.053,222,21.79,20.82,0.02652679,0,48.86,56.58,33.01,34.88
"2016-07-28 23:10:00",246296,0.124,84.3,18.85,100,0,0,868.4445,0,2.588,3.051,242,21.78,20.84,0.06821174,0,48.86,56.58,33.01,34.88
"2016-07-28 23:20:00",246297,0.12,60.36,18.83,100,0,0,868.5468,0,3.678,3.04,356,21.73,20.84,0.189477,0,48.92,56.52,33.03,34.87
"2016-07-28 23:30:00",246298,0.06,40.31,18.86,100,0,0,868.5961,0,3.265,3.044,389,21.71,20.86,0.2273725,0,48.92,56.58,33.03,34.88
"2016-07-28 23:40:00",246299,0.045,40.99,18.84,100,0,0,868.6351,0,2.485,3.052,339,21.71,20.87,0.189477,0,48.86,56.52,33.01,34.87
"2016-07-28 23:50:00",246300,0.089,51.38,18.79,100,0,0,868.6602,0,-1.857,3.094,202,21.71,20.87,0.189477,0,48.86,56.52,33.01,34.87
